Canadian, TX

12:33 PM CDT on September 20, 2017 (GMT -0500)
Hemphill County

Weather History for KHHF - March, 2013

Change the Weather History Date:

Sunday, March 24, 2013

  Actual Average (KPPA) Record (KPPA)
Temperature  
Mean Temperature 31 °F -  
Max Temperature 39 °F 58 °F 86 °F (2004)
Min Temperature 24 °F 33 °F 16 °F (1965)
Degree Days  
Heating Degree Days 34    
Moisture  
Dew Point 23 °F    
Average Humidity 72    
Maximum Humidity 93    
Minimum Humidity 48    
Precipitation  
Precipitation 0.00 in - - ()
Sea Level Pressure  
Sea Level Pressure 30.15 in    
Wind  
Wind Speed 15 mph (North)    
Max Wind Speed 28 mph    
Max Gust Speed 33 mph    
Visibility 10 miles    
Events Snow    
Averages and records for this station are not official NWS values.
T = Trace of Precipitation, MM = Missing Value Source: NWS Daily Summary

Daily Weather History Graph

Daily Weather History Graph

Search for Another Location

Airport or City:

Trip Planner

Search our weather history database for the weather conditions in past years. The results will help you decide how hot, cold, wet, or windy it might be!

Date:

Astronomy

Mar. 24, 2013 Rise Set
Actual Time 7:39 AM CDT 7:56 PM CDT
Civil Twilight 7:13 AM CDT 8:22 PM CDT
Nautical Twilight 6:43 AM CDT 8:52 PM CDT
Astronomical Twilight 6:13 AM CDT 9:23 PM CDT
Moon 5:30 PM CDT (3/24) 5:45 AM CDT (3/24)
Length of Visible Light 13h 09m
Length of Day
12h 17m
Waxing Gibbous, 92% of the Moon is Illuminated
Mar 24
Waxing Gibbous
Mar 27
Full
Apr 2
Last Quarter
Apr 10
New
Apr 18
First Quarter

Hourly Weather History & Observations

Time (CDT) Temp. Windchill Dew Point Humidity Pressure Visibility Wind Dir Wind Speed Gust Speed Precip Events Conditions
12:15 AM 30.7 °F 20.0 °F 28.9 °F 93% 30.07 in 4.0 mi NW 15.0 mph 23.0 mph N/A Snow Light Snow
12:35 AM 30.0 °F 17.9 °F 27.7 °F 91% 30.07 in 5.0 mi NW 18.4 mph 26.5 mph N/A   Overcast
12:55 AM 28.8 °F 16.2 °F 26.2 °F 90% 30.07 in 7.0 mi NNW 18.4 mph 32.2 mph N/A   Mostly Cloudy
1:15 AM 28.8 °F 16.2 °F 25.9 °F 89% 30.08 in 10.0 mi NNW 18.4 mph 28.8 mph N/A   Scattered Clouds
1:35 AM 28.4 °F 15.8 °F 25.5 °F 89% 30.09 in 10.0 mi NNW 18.4 mph 24.2 mph N/A   Clear
1:55 AM 28.2 °F 15.9 °F 25.2 °F 88% 30.10 in 10.0 mi NNW 17.3 mph - N/A   Scattered Clouds
2:15 AM 27.7 °F 15.2 °F 24.8 °F 89% 30.11 in 10.0 mi NNW 17.3 mph 21.9 mph N/A   Clear
2:35 AM 27.5 °F 15.0 °F 24.8 °F 90% 30.10 in 10.0 mi NNW 17.3 mph - N/A   Clear
2:55 AM 27.9 °F 14.7 °F 25.7 °F 92% 30.10 in 10.0 mi NNW 19.6 mph 26.5 mph N/A   Mostly Cloudy
3:15 AM 28.4 °F 14.7 °F 24.8 °F 86% 30.10 in 10.0 mi North 21.9 mph 29.9 mph N/A   Overcast
3:35 AM 28.2 °F 14.8 °F 25.2 °F 88% 30.09 in 10.0 mi NNW 20.7 mph 26.5 mph N/A   Mostly Cloudy
3:55 AM 27.3 °F 14.0 °F 23.9 °F 87% 30.09 in 10.0 mi NNW 19.6 mph 25.3 mph N/A   Scattered Clouds
4:15 AM 27.5 °F 13.5 °F 24.4 °F 88% 30.08 in 10.0 mi NNW 21.9 mph 28.8 mph N/A   Mostly Cloudy
4:35 AM 27.5 °F 15.4 °F 23.7 °F 86% 30.09 in 10.0 mi NNW 16.1 mph 26.5 mph N/A   Scattered Clouds
4:55 AM 27.5 °F 12.0 °F 23.9 °F 86% 30.09 in 10.0 mi North 27.6 mph 33.4 mph N/A   Mostly Cloudy
5:15 AM 27.5 °F 14.6 °F 24.1 °F 87% 30.09 in 10.0 mi North 18.4 mph 32.2 mph N/A   Overcast
5:35 AM 27.5 °F 14.6 °F 24.3 °F 88% 30.10 in 10.0 mi NNW 18.4 mph 24.2 mph N/A   Overcast
5:55 AM 26.8 °F 12.9 °F 22.1 °F 83% 30.10 in 10.0 mi NNW 20.7 mph 28.8 mph N/A   Scattered Clouds
6:15 AM 26.6 °F 12.7 °F 22.3 °F 84% 30.12 in 10.0 mi NNW 20.7 mph 25.3 mph N/A   Clear
6:55 AM 25.7 °F 13.5 °F 21.7 °F 85% 30.14 in 10.0 mi North 15.0 mph 23.0 mph N/A   Scattered Clouds
7:15 AM 26.6 °F 15.2 °F 21.4 °F 81% 30.15 in 10.0 mi NNW 13.8 mph 21.9 mph N/A   Mostly Cloudy
7:35 AM 26.8 °F 14.5 °F 21.6 °F 81% 30.16 in 10.0 mi NNW 16.1 mph - N/A   Overcast
7:55 AM 25.3 °F 12.2 °F 19.4 °F 78% 30.16 in 10.0 mi NNW 17.3 mph 24.2 mph N/A   Scattered Clouds
8:15 AM 24.4 °F 11.0 °F 18.5 °F 78% 30.17 in 10.0 mi NNW 17.3 mph - N/A   Clear
8:35 AM 24.6 °F 11.3 °F 18.3 °F 77% 30.18 in 10.0 mi NNW 17.3 mph 24.2 mph N/A   Clear
8:55 AM 24.8 °F 12.4 °F 18.3 °F 76% 30.19 in 10.0 mi North 15.0 mph - N/A   Clear
9:15 AM 25.5 °F 13.3 °F 18.3 °F 74% 30.20 in 10.0 mi North 15.0 mph 25.3 mph N/A   Clear
9:35 AM 25.7 °F 14.0 °F 18.5 °F 74% 30.21 in 10.0 mi North 13.8 mph 20.7 mph N/A   Clear
9:55 AM 26.2 °F 14.2 °F 19.2 °F 75% 30.21 in 10.0 mi North 15.0 mph 20.7 mph N/A   Clear
10:15 AM 26.6 °F 15.7 °F 19.0 °F 73% 30.22 in 10.0 mi North 12.7 mph - N/A   Clear
10:35 AM 27.3 °F 15.6 °F 19.9 °F 74% 30.23 in 10.0 mi North 15.0 mph 20.7 mph N/A   Clear
10:55 AM 27.5 °F 15.4 °F 19.6 °F 72% 30.22 in 10.0 mi North 16.1 mph 23.0 mph N/A   Clear
11:15 AM 28.2 °F 17.2 °F 18.5 °F 67% 30.23 in 10.0 mi North 13.8 mph 23.0 mph N/A   Clear
11:35 AM 28.2 °F 16.8 °F 18.5 °F 67% 30.23 in 10.0 mi North 15.0 mph 20.7 mph N/A   Clear
11:55 AM 28.6 °F 17.7 °F 19.6 °F 69% 30.23 in 10.0 mi North 13.8 mph 19.6 mph N/A   Clear
12:15 PM 29.8 °F 19.8 °F 20.8 °F 69% 30.23 in 10.0 mi North 12.7 mph 19.6 mph N/A   Clear
12:35 PM 30.2 °F 19.3 °F 19.9 °F 66% 30.22 in 10.0 mi North 15.0 mph 24.2 mph N/A   Clear
12:55 PM 31.1 °F 23.1 °F 21.4 °F 67% 30.22 in 10.0 mi North 9.2 mph 18.4 mph N/A   Clear
1:15 PM 32.0 °F 21.6 °F 20.7 °F 63% 30.21 in 10.0 mi NNE 15.0 mph 21.9 mph N/A   Clear
1:35 PM 32.5 °F 22.7 °F 23.2 °F 68% 30.20 in 10.0 mi NNE 13.8 mph 20.7 mph N/A   Clear
1:55 PM 32.5 °F 23.2 °F 21.9 °F 65% 30.19 in 10.0 mi NNE 12.7 mph 20.7 mph N/A   Clear
2:15 PM 34.3 °F 24.6 °F 24.3 °F 67% 30.18 in 10.0 mi North 15.0 mph 20.7 mph N/A   Clear
2:35 PM 35.1 °F 28.6 °F 24.1 °F 64% 30.18 in 10.0 mi NNE 8.1 mph 20.7 mph N/A   Clear
2:55 PM 34.9 °F 26.6 °F 22.6 °F 61% 30.17 in 10.0 mi North 11.5 mph - N/A   Clear
3:15 PM 36.0 °F 28.5 °F 23.5 °F 61% 30.16 in 10.0 mi NNE 10.4 mph 18.4 mph N/A   Clear
3:35 PM 36.3 °F 26.4 °F 23.4 °F 59% 30.16 in 10.0 mi North 17.3 mph - N/A   Scattered Clouds
3:55 PM 37.4 °F 29.3 °F 22.6 °F 55% 30.14 in 10.0 mi North 12.7 mph - N/A   Clear
4:15 PM 37.4 °F 30.3 °F 21.7 °F 53% 30.14 in 10.0 mi North 10.4 mph 18.4 mph N/A   Clear
4:35 PM 38.5 °F 30.7 °F 21.6 °F 51% 30.14 in 10.0 mi North 12.7 mph 18.4 mph N/A   Clear
4:55 PM 38.3 °F 31.9 °F 21.6 °F 51% 30.14 in 10.0 mi NNW 9.2 mph - N/A   Clear
5:15 PM 38.1 °F 33.7 °F 22.1 °F 53% 30.14 in 10.0 mi North 5.8 mph - N/A   Clear
5:35 PM 38.7 °F 32.9 °F 20.5 °F 48% 30.13 in 10.0 mi North 8.1 mph - N/A   Clear
5:55 PM 38.5 °F 29.9 °F 20.3 °F 48% 30.12 in 10.0 mi North 15.0 mph - N/A   Clear
6:15 PM 38.7 °F 33.6 °F 20.7 °F 48% 30.13 in 10.0 mi North 6.9 mph - N/A   Clear
6:35 PM 38.7 °F 31.8 °F 21.6 °F 50% 30.13 in 10.0 mi North 10.4 mph 17.3 mph N/A   Clear
6:55 PM 38.5 °F 31.1 °F 21.2 °F 50% 30.13 in 10.0 mi North 11.5 mph - N/A   Clear
7:15 PM 37.9 °F 30.5 °F 21.4 °F 51% 30.13 in 10.0 mi NNE 11.5 mph 16.1 mph N/A   Clear
7:35 PM 37.4 °F 32.8 °F 21.6 °F 53% 30.14 in 10.0 mi North 5.8 mph - N/A   Clear
7:55 PM 36.5 °F 30.3 °F 21.9 °F 56% 30.14 in 10.0 mi NNE 8.1 mph - N/A   Clear
8:15 PM 35.6 °F 30.7 °F 22.6 °F 59% 30.15 in 10.0 mi NNE 5.8 mph - N/A   Clear
8:35 PM 34.7 °F 30.6 °F 23.9 °F 65% 30.16 in 10.0 mi NNE 4.6 mph - N/A   Clear
8:55 PM 34.2 °F - 24.8 °F 69% 30.17 in 10.0 mi Calm Calm - N/A   Scattered Clouds
9:15 PM 34.7 °F - 23.9 °F 65% 30.18 in 10.0 mi Calm Calm - N/A   Mostly Cloudy
9:35 PM 34.5 °F - 25.0 °F 68% 30.19 in 10.0 mi Calm Calm - N/A   Overcast
9:55 PM 34.7 °F - 24.1 °F 65% 30.19 in 10.0 mi Calm Calm - N/A   Mostly Cloudy
10:15 PM 33.3 °F - 25.0 °F 72% 30.19 in 10.0 mi Calm Calm - N/A   Overcast
10:35 PM 32.2 °F - 26.4 °F 79% 30.20 in 10.0 mi Calm Calm - N/A   Overcast
10:55 PM 31.8 °F - 27.0 °F 82% 30.20 in 10.0 mi Calm Calm - N/A   Mostly Cloudy
11:15 PM 32.0 °F - 26.8 °F 81% 30.20 in 10.0 mi Calm Calm - N/A   Mostly Cloudy
11:35 PM 32.2 °F - 28.0 °F 85% 30.21 in 10.0 mi Calm Calm - N/A   Overcast
11:55 PM 32.2 °F - 28.2 °F 85% 30.21 in 10.0 mi Calm Calm - N/A   Overcast